contact:dominique.lefevre@mio.osupytheas.fr, maurice.libes@osupytheas.fr, didier.mallarino@osupytheas.fr
Project:EMSO http://www.emso-fr.org/EMSO-France
Depth: 2436.0 m
Title:EMSO Ligure Ouest : Data MII capteur AQUADOPP
Date,Latitude,Longitude,X_East,Y_North,Z_Up,Amplitude_X,Amplitude_Y,Amplitude_Z,Batterie,SoundSpeed,Heading,Pitch,Roll,Pressure,TIS,Speed,Direction
, degrees North, degrees East, m.s-1, m.s-1,m.s-1, 1, 1, 1, Volt, m.s-1, degree, degree, degree, dbar, degree_C, m.s-1, degree
2023-07-09T00:04:03,42.805,6.029,0.022,-0.003,-0.016,102.0,102.0,101.0,13.4,1505.2,351.7,-0.8,1.8,2471.578,13.28,0.022,97.8
2023-07-09T00:07:03,42.805,6.029,0.044,-0.064,-0.061,102.0,102.0,101.0,13.4,1505.2,342.3,-0.7,1.8,2471.599,13.28,0.077,145.5
2023-07-09T00:10:03,42.805,6.029,0.02,-0.001,-0.032,102.0,102.0,101.0,13.4,1505.2,331.0,-0.8,1.8,2471.576,13.28,0.02,92.9
2023-07-09T00:13:03,42.805,6.029,0.049,-0.041,-0.052,100.0,102.0,100.0,13.4,1505.2,341.9,-0.8,1.8,2471.599,13.29,0.063,129.9
2023-07-09T00:16:03,42.805,6.029,0.046,-0.023,0.017,102.0,102.0,101.0,13.4,1505.2,334.4,-0.7,1.8,2471.535,13.29,0.051,116.6
2023-07-09T00:19:03,42.805,6.029,0.024,-0.038,-0.02,103.0,103.0,101.0,13.4,1505.2,353.4,-0.8,1.8,2471.559,13.29,0.044,147.7
2023-07-09T00:22:03,42.805,6.029,0.017,-0.024,-0.002,102.0,102.0,100.0,13.4,1505.2,344.8,-0.8,1.8,2471.559,13.29,0.029,144.7
2023-07-09T00:25:03,42.805,6.029,0.008,-0.036,-0.054,102.0,102.0,100.0,13.4,1505.2,354.5,-0.8,1.8,2471.555,13.29,0.036,167.5
2023-07-09T00:28:03,42.805,6.029,0.075,-0.046,-0.033,101.0,101.0,102.0,13.4,1505.2,324.3,-0.7,1.8,2471.51,13.29,0.087,121.5
2023-07-09T00:31:03,42.805,6.029,0.044,-0.025,-0.021,101.0,101.0,101.0,13.3,1505.2,330.3,-0.8,1.8,2471.59,13.29,0.05,119.6
2023-07-09T00:34:03,42.805,6.029,0.028,-0.009,-0.01,102.0,101.0,101.0,13.4,1505.2,326.0,-0.8,1.8,2471.523,13.29,0.029,107.8
2023-07-09T00:37:03,42.805,6.029,0.02,-0.043,-0.046,102.0,102.0,100.0,13.4,1505.2,352.3,-0.8,1.8,2471.539,13.29,0.047,155.1
2023-07-09T00:40:03,42.805,6.029,0.042,-0.029,-0.012,103.0,101.0,102.0,13.4,1505.2,325.7,-0.8,1.8,2471.529,13.29,0.051,124.6
2023-07-09T00:43:03,42.805,6.029,0.039,-0.039,-0.007,101.0,102.0,101.0,13.4,1505.2,346.4,-0.8,1.8,2471.528,13.29,0.055,135.0
2023-07-09T00:46:03,42.805,6.029,0.04,-0.036,-0.033,103.0,102.0,101.0,13.4,1505.2,340.9,-0.8,1.8,2471.541,13.29,0.053,132.0
2023-07-09T00:49:03,42.805,6.029,0.023,-0.009,-0.032,102.0,100.0,101.0,13.3,1505.2,327.9,-0.8,1.8,2471.53,13.29,0.024,111.4
2023-07-09T00:52:03,42.805,6.029,0.031,-0.034,-0.032,101.0,102.0,101.0,13.4,1505.2,344.9,-0.8,1.8,2471.591,13.29,0.046,137.6
2023-07-09T00:55:03,42.805,6.029,0.04,-0.024,-0.01,102.0,103.0,101.0,13.3,1505.2,341.5,-0.8,1.8,2471.563,13.29,0.046,121.0
2023-07-09T00:58:03,42.805,6.029,0.02,-0.011,-0.006,102.0,101.0,101.0,13.4,1505.2,348.9,-0.8,1.8,2471.504,13.29,0.022,118.8
2023-07-09T01:04:03,42.805,6.029,0.032,0.012,0.006,103.0,103.0,102.0,13.4,1505.2,329.0,-0.8,1.8,2471.584,13.28,0.034,69.4
2023-07-09T01:07:03,42.805,6.029,0.021,-0.012,-0.01,102.0,102.0,101.0,13.3,1505.2,330.9,-0.7,1.8,2471.585,13.28,0.024,119.7
2023-07-09T01:10:03,42.805,6.029,0.035,-0.001,-0.017,102.0,102.0,101.0,13.4,1505.2,327.7,-0.8,1.8,2471.601,13.28,0.035,91.6
2023-07-09T01:13:03,42.805,6.029,0.04,-0.018,-0.009,101.0,102.0,101.0,13.4,1505.2,325.5,-0.8,1.8,2471.56,13.29,0.043,114.2
2023-07-09T01:16:03,42.805,6.029,0.04,-0.035,-0.034,102.0,101.0,101.0,13.4,1505.2,328.6,-0.8,1.8,2471.588,13.29,0.053,131.2
2023-07-09T01:19:03,42.805,6.029,0.029,-0.021,-0.025,102.0,102.0,100.0,13.4,1505.2,340.5,-0.8,1.8,2471.525,13.29,0.035,125.9
2023-07-09T01:22:03,42.805,6.029,0.048,-0.033,-0.026,102.0,101.0,101.0,13.3,1505.2,345.4,-0.8,1.8,2471.569,13.29,0.058,124.5
2023-07-09T01:25:03,42.805,6.029,0.013,-0.024,-0.035,102.0,101.0,102.0,13.4,1505.2,332.1,-0.8,1.8,2471.529,13.29,0.027,151.6
2023-07-09T01:28:03,42.805,6.029,0.038,-0.049,-0.026,103.0,101.0,100.0,13.3,1505.2,345.9,-0.8,1.8,2471.543,13.29,0.062,142.2
2023-07-09T01:31:03,42.805,6.029,0.026,-0.042,-0.038,104.0,102.0,100.0,13.3,1505.2,345.4,-0.7,1.8,2471.508,13.29,0.049,148.2
2023-07-09T01:34:03,42.805,6.029,0.025,-0.03,-0.047,102.0,103.0,101.0,13.4,1505.2,341.9,-0.7,1.8,2471.545,13.29,0.039,140.2
2023-07-09T01:37:03,42.805,6.029,0.034,-0.025,-0.026,100.0,103.0,102.0,13.4,1505.2,332.1,-0.8,1.8,2471.526,13.29,0.042,126.3
2023-07-09T01:40:03,42.805,6.029,0.031,-0.033,-0.048,101.0,101.0,101.0,13.4,1505.2,331.1,-0.7,1.8,2471.549,13.29,0.045,136.8
2023-07-09T01:43:03,42.805,6.029,0.033,-0.03,-0.039,101.0,102.0,100.0,13.3,1505.2,326.0,-0.7,1.8,2471.551,13.29,0.044,132.3
2023-07-09T01:46:03,42.805,6.029,0.031,-0.024,-0.03,103.0,100.0,101.0,13.3,1505.2,344.8,-0.8,1.8,2471.497,13.29,0.039,127.7
2023-07-09T01:49:03,42.805,6.029,0.035,-0.043,-0.046,102.0,101.0,101.0,13.3,1505.2,343.5,-0.8,1.8,2471.518,13.29,0.055,140.9
2023-07-09T01:52:03,42.805,6.029,0.01,-0.016,0.0,101.0,102.0,101.0,13.3,1505.2,343.1,-0.8,1.8,2471.514,13.29,0.018,148.0
2023-07-09T01:55:03,42.805,6.029,0.025,-0.024,-0.016,101.0,102.0,100.0,13.4,1505.2,340.2,-0.8,1.8,2471.508,13.29,0.034,133.8
2023-07-09T01:58:03,42.805,6.029,0.04,-0.037,-0.037,102.0,101.0,101.0,13.3,1505.2,331.3,-0.8,1.8,2471.495,13.29,0.054,132.8
2023-07-09T02:04:03,42.805,6.029,0.009,-0.03,-0.047,103.0,101.0,101.0,13.3,1505.2,344.0,-0.8,1.8,2471.515,13.28,0.031,163.3
2023-07-09T02:07:03,42.805,6.029,0.045,-0.018,-0.008,102.0,102.0,100.0,13.4,1505.2,330.5,-0.8,1.8,2471.554,13.28,0.048,111.8
2023-07-09T02:10:03,42.805,6.029,0.024,-0.029,-0.014,101.0,101.0,100.0,13.4,1505.2,342.1,-0.8,1.9,2471.548,13.28,0.037,140.4
2023-07-09T02:13:03,42.805,6.029,0.018,-0.01,-0.016,102.0,101.0,101.0,13.4,1505.2,341.9,-0.8,1.8,2471.529,13.29,0.02,119.1
2023-07-09T02:16:03,42.805,6.029,0.028,-0.02,-0.049,102.0,102.0,100.0,13.3,1505.2,330.1,-0.8,1.8,2471.498,13.29,0.034,125.5
2023-07-09T02:19:03,42.805,6.029,0.017,-0.031,-0.029,102.0,102.0,100.0,13.4,1505.2,334.7,-0.7,1.8,2471.499,13.29,0.035,151.3
2023-07-09T02:22:03,42.805,6.029,0.027,-0.004,0.016,101.0,100.0,101.0,13.4,1505.2,347.9,-0.8,1.8,2471.511,13.29,0.027,98.4
2023-07-09T02:25:03,42.805,6.029,0.039,-0.021,-0.029,101.0,100.0,102.0,13.4,1505.2,324.9,-0.8,1.8,2471.496,13.29,0.044,118.3
2023-07-09T02:28:03,42.805,6.029,0.033,-0.02,-0.01,101.0,102.0,100.0,13.4,1505.2,328.5,-0.8,1.8,2471.512,13.29,0.038,121.2
2023-07-09T02:31:03,42.805,6.029,0.033,-0.041,-0.032,102.0,103.0,100.0,13.4,1505.2,332.5,-0.8,1.8,2471.487,13.29,0.052,141.2
2023-07-09T02:34:03,42.805,6.029,0.042,-0.021,-0.018,102.0,102.0,101.0,13.4,1505.2,332.5,-0.7,1.8,2471.492,13.29,0.046,116.6
2023-07-09T02:37:03,42.805,6.029,0.003,-0.002,-0.003,103.0,104.0,100.0,13.4,1505.2,336.1,-0.8,1.8,2471.558,13.29,0.003,123.7
2023-07-09T02:40:03,42.805,6.029,0.042,-0.061,-0.034,102.0,102.0,100.0,13.4,1505.2,353.1,-0.8,1.8,2471.515,13.29,0.074,145.4
2023-07-09T02:43:03,42.805,6.029,0.041,-0.021,-0.019,102.0,103.0,102.0,13.4,1505.2,324.2,-0.8,1.8,2471.484,13.29,0.046,117.1
2023-07-09T02:46:03,42.805,6.029,0.026,-0.017,-0.018,102.0,101.0,102.0,13.4,1505.2,340.0,-0.8,1.8,2471.452,13.29,0.031,123.2
2023-07-09T02:49:03,42.805,6.029,0.01,-0.022,-0.016,101.0,102.0,101.0,13.4,1505.2,345.4,-0.7,1.8,2471.503,13.29,0.024,155.6
2023-07-09T02:52:03,42.805,6.029,0.062,-0.06,-0.033,102.0,102.0,100.0,13.4,1505.2,328.6,-0.8,1.8,2471.474,13.29,0.086,134.1
2023-07-09T02:55:03,42.805,6.029,0.034,-0.02,0.007,101.0,103.0,102.0,13.4,1505.2,343.0,-0.7,1.8,2471.537,13.29,0.039,120.5
2023-07-09T02:58:03,42.805,6.029,0.041,-0.026,-0.033,102.0,102.0,101.0,13.4,1505.2,348.8,-0.7,1.9,2471.49,13.29,0.048,122.4
2023-07-09T03:04:03,42.805,6.029,0.01,-0.016,-0.04,101.0,102.0,101.0,13.4,1505.2,348.0,-0.8,1.8,2471.574,13.28,0.018,148.0
2023-07-09T03:07:03,42.805,6.029,0.035,-0.015,-0.017,102.0,103.0,101.0,13.4,1505.2,327.9,-0.8,1.8,2471.525,13.28,0.038,113.2
2023-07-09T03:10:03,42.805,6.029,0.042,-0.023,-0.03,103.0,100.0,102.0,13.3,1505.2,322.9,-0.8,1.8,2471.495,13.28,0.047,118.7
2023-07-09T03:13:03,42.805,6.029,0.024,-0.031,-0.037,101.0,102.0,101.0,13.4,1505.2,329.3,-0.8,1.8,2471.522,13.28,0.039,142.3
2023-07-09T03:16:03,42.805,6.029,0.03,-0.042,-0.024,103.0,100.0,100.0,13.4,1505.2,352.3,-0.8,1.8,2471.505,13.29,0.051,144.5
2023-07-09T03:19:03,42.805,6.029,0.019,-0.039,-0.041,102.0,102.0,100.0,13.3,1505.2,353.2,-0.7,1.8,2471.488,13.29,0.043,154.0
2023-07-09T03:22:03,42.805,6.029,0.016,-0.019,-0.04,104.0,100.0,101.0,13.4,1505.2,336.8,-0.7,1.8,2471.464,13.29,0.024,139.9
2023-07-09T03:25:03,42.805,6.029,0.021,-0.036,-0.047,101.0,101.0,102.0,13.3,1505.2,330.9,-0.8,1.8,2471.489,13.29,0.041,149.7
2023-07-09T03:28:03,42.805,6.029,0.027,-0.023,-0.012,102.0,102.0,100.0,13.4,1505.2,353.2,-0.7,1.8,2471.459,13.29,0.035,130.4
2023-07-09T03:31:03,42.805,6.029,0.047,-0.019,-0.023,102.0,103.0,101.0,13.3,1505.2,324.2,-0.8,1.8,2471.47,13.29,0.05,112.0
2023-07-09T03:34:03,42.805,6.029,0.02,-0.031,-0.032,102.0,103.0,101.0,13.3,1505.2,348.6,-0.8,1.8,2471.481,13.29,0.036,147.2
2023-07-09T03:37:03,42.805,6.029,0.037,-0.03,-0.001,102.0,101.0,100.0,13.3,1505.2,341.5,-0.8,1.8,2471.426,13.29,0.047,129.0
2023-07-09T03:40:03,42.805,6.029,0.016,-0.024,-0.003,102.0,102.0,101.0,13.3,1505.2,349.7,-0.8,1.8,2471.442,13.29,0.028,146.3
2023-07-09T03:43:03,42.805,6.029,0.022,-0.018,-0.013,103.0,103.0,101.0,13.4,1505.2,330.1,-0.8,1.8,2471.504,13.29,0.028,129.3
2023-07-09T03:46:03,42.805,6.029,0.032,-0.028,-0.006,102.0,103.0,100.0,13.3,1505.2,333.9,-0.7,1.8,2471.472,13.29,0.042,131.2
2023-07-09T03:49:03,42.805,6.029,0.029,-0.025,-0.015,103.0,102.0,101.0,13.4,1505.2,342.5,-0.8,1.8,2471.427,13.29,0.038,130.8
2023-07-09T03:52:03,42.805,6.029,0.04,-0.027,-0.02,103.0,102.0,101.0,13.4,1505.2,341.1,-0.7,1.8,2471.42,13.29,0.048,124.0
2023-07-09T03:55:03,42.805,6.029,0.025,-0.017,-0.035,100.0,103.0,100.0,13.4,1505.2,338.7,-0.7,1.8,2471.419,13.29,0.03,124.2
2023-07-09T03:58:03,42.805,6.029,0.022,-0.016,-0.054,101.0,103.0,101.0,13.4,1505.2,331.2,-0.8,1.8,2471.455,13.29,0.027,126.0
2023-07-09T04:04:03,42.805,6.029,0.039,-0.027,-0.028,102.0,104.0,100.0,13.4,1505.2,330.2,-0.8,1.8,2471.502,13.28,0.047,124.7
2023-07-09T04:07:03,42.805,6.029,0.014,-0.034,-0.003,103.0,101.0,101.0,13.4,1505.2,343.7,-0.7,1.8,2471.428,13.28,0.036,157.6
2023-07-09T04:10:03,42.805,6.029,0.006,-0.036,-0.034,102.0,101.0,101.0,13.4,1505.2,335.5,-0.8,1.8,2471.469,13.28,0.036,170.5
2023-07-09T04:13:03,42.805,6.029,0.026,-0.049,-0.022,102.0,102.0,101.0,13.3,1505.2,352.3,-0.8,1.8,2471.443,13.28,0.055,152.1
2023-07-09T04:16:03,42.805,6.029,0.02,-0.049,-0.08,100.0,102.0,100.0,13.3,1505.2,341.9,-0.8,1.8,2471.459,13.29,0.052,157.8
2023-07-09T04:19:03,42.805,6.029,0.021,-0.044,-0.026,103.0,104.0,101.0,13.4,1505.2,344.2,-0.8,1.8,2471.42,13.29,0.048,154.5
2023-07-09T04:22:03,42.805,6.029,0.044,-0.022,-0.041,101.0,102.0,101.0,13.4,1505.2,325.5,-0.8,1.8,2471.414,13.29,0.049,116.6
2023-07-09T04:25:03,42.805,6.029,0.026,-0.019,-0.056,103.0,101.0,101.0,13.3,1505.2,332.9,-0.8,1.8,2471.433,13.29,0.032,126.2
2023-07-09T04:28:03,42.805,6.029,0.033,-0.042,-0.013,102.0,101.0,101.0,13.3,1505.2,337.6,-0.8,1.8,2471.45,13.29,0.053,141.8
2023-07-09T04:31:03,42.805,6.029,0.047,-0.039,-0.042,103.0,101.0,101.0,13.4,1505.2,335.2,-0.8,1.8,2471.399,13.29,0.061,129.7
2023-07-09T04:34:03,42.805,6.029,0.0,-0.014,-0.016,102.0,103.0,101.0,13.4,1505.2,331.2,-0.8,1.8,2471.39,13.29,0.014,180.0
2023-07-09T04:37:03,42.805,6.029,0.039,-0.053,0.001,103.0,102.0,102.0,13.4,1505.2,350.7,-0.8,1.8,2471.41,13.29,0.065,143.7
2023-07-09T04:40:03,42.805,6.029,0.009,-0.028,-0.041,101.0,103.0,101.0,13.4,1505.2,347.7,-0.8,1.8,2471.412,13.29,0.029,162.2
2023-07-09T04:43:03,42.805,6.029,0.016,-0.03,-0.024,101.0,102.0,101.0,13.4,1505.2,329.0,-0.8,1.9,2471.44,13.29,0.034,151.9
2023-07-09T04:46:03,42.805,6.029,0.04,-0.027,-0.034,102.0,101.0,100.0,13.4,1505.2,333.0,-0.7,1.8,2471.377,13.29,0.048,124.0
2023-07-09T04:49:03,42.805,6.029,0.04,-0.052,-0.06,102.0,103.0,100.0,13.3,1505.2,343.2,-0.7,1.8,2471.399,13.29,0.065,142.4
2023-07-09T04:52:03,42.805,6.029,0.041,-0.022,-0.028,106.0,102.0,100.0,13.4,1505.2,327.1,-0.8,1.8,2471.427,13.29,0.046,118.2
2023-07-09T04:55:03,42.805,6.029,0.033,-0.012,-0.065,104.0,101.0,101.0,13.3,1505.2,320.5,-0.8,1.8,2471.403,13.29,0.035,110.0
2023-07-09T04:58:03,42.805,6.029,0.03,-0.028,-0.039,102.0,103.0,101.0,13.4,1505.2,336.5,-0.8,1.8,2471.402,13.29,0.041,133.0
2023-07-09T05:04:03,42.805,6.029,0.012,-0.026,-0.053,103.0,102.0,100.0,13.4,1505.2,344.2,-0.8,1.8,2471.456,13.28,0.028,155.2
2023-07-09T05:07:03,42.805,6.029,0.018,-0.032,-0.067,102.0,101.0,101.0,13.4,1505.2,324.4,-0.8,1.8,2471.401,13.28,0.036,150.6
2023-07-09T05:10:03,42.805,6.029,0.045,-0.02,0.002,103.0,103.0,101.0,13.3,1505.2,349.1,-0.8,1.8,2471.41,13.28,0.049,114.0
2023-07-09T05:13:03,42.805,6.029,0.022,-0.032,-0.027,102.0,102.0,101.0,13.4,1505.2,343.0,-0.8,1.8,2471.407,13.29,0.038,145.5
2023-07-09T05:16:03,42.805,6.029,0.0,-0.045,-0.048,102.0,102.0,101.0,13.4,1505.2,352.6,-0.7,1.8,2471.418,13.29,0.045,180.0
2023-07-09T05:19:03,42.805,6.029,0.026,0.0,-0.025,103.0,102.0,101.0,13.3,1505.2,336.1,-0.8,1.8,2471.417,13.29,0.026,90.0
2023-07-09T05:22:03,42.805,6.029,0.022,-0.033,-0.037,103.0,103.0,101.0,13.4,1505.2,338.3,-0.8,1.8,2471.426,13.29,0.039,146.3
2023-07-09T05:25:03,42.805,6.029,0.033,-0.017,0.005,102.0,102.0,101.0,13.4,1505.2,331.6,-0.8,1.8,2471.41,13.29,0.037,117.3
2023-07-09T05:28:03,42.805,6.029,0.035,-0.018,-0.012,104.0,102.0,102.0,13.4,1505.2,323.3,-0.8,1.8,2471.359,13.29,0.039,117.2
2023-07-09T05:31:03,42.805,6.029,-0.004,-0.017,-0.058,103.0,102.0,102.0,13.3,1505.2,336.2,-0.8,1.8,2471.395,13.29,0.017,193.2
2023-07-09T05:34:03,42.805,6.029,0.041,-0.038,-0.045,104.0,102.0,101.0,13.3,1505.2,331.0,-0.7,1.8,2471.391,13.29,0.055,132.8
2023-07-09T05:37:03,42.805,6.029,0.026,-0.038,-0.02,103.0,102.0,101.0,13.3,1505.2,333.4,-0.8,1.8,2471.426,13.29,0.046,145.6
2023-07-09T05:40:03,42.805,6.029,0.009,-0.032,-0.045,102.0,102.0,100.0,13.3,1505.2,337.1,-0.8,1.8,2471.409,13.29,0.033,164.3
2023-07-09T05:43:03,42.805,6.029,0.021,-0.029,-0.002,103.0,102.0,101.0,13.3,1505.2,339.1,-0.8,1.8,2471.365,13.29,0.035,144.1
2023-07-09T05:46:03,42.805,6.029,0.044,-0.038,-0.002,102.0,103.0,102.0,13.4,1505.2,329.6,-0.7,1.8,2471.39,13.29,0.058,130.8
2023-07-09T05:49:03,42.805,6.029,0.028,-0.046,-0.047,102.0,103.0,101.0,13.4,1505.2,332.9,-0.8,1.8,2471.368,13.29,0.053,148.7
2023-07-09T05:52:03,42.805,6.029,-0.006,-0.014,-0.044,103.0,103.0,101.0,13.4,1505.2,348.9,-0.8,1.8,2471.4,13.29,0.015,203.2
2023-07-09T05:55:03,42.805,6.029,0.003,-0.027,-0.032,102.0,103.0,101.0,13.4,1505.2,325.7,-0.8,1.8,2471.377,13.29,0.027,173.7
2023-07-09T05:58:03,42.805,6.029,0.01,-0.013,-0.055,103.0,102.0,102.0,13.4,1505.2,332.1,-0.8,1.8,2471.369,13.29,0.016,142.4
2023-07-09T06:04:03,42.805,6.029,0.004,-0.006,-0.008,104.0,103.0,102.0,13.3,1505.2,343.0,-0.8,1.8,2471.405,13.28,0.007,146.3
2023-07-09T06:07:03,42.805,6.029,0.011,-0.013,-0.005,103.0,103.0,102.0,13.4,1505.2,323.4,-0.8,1.8,2471.43,13.28,0.017,139.8
2023-07-09T06:10:03,42.805,6.029,0.03,-0.034,-0.017,103.0,102.0,102.0,13.4,1505.2,343.0,-0.7,1.8,2471.393,13.28,0.045,138.6
2023-07-09T06:13:03,42.805,6.029,0.021,-0.011,-0.023,103.0,102.0,102.0,13.4,1505.2,340.0,-0.8,1.8,2471.38,13.29,0.023,117.6
2023-07-09T06:16:03,42.805,6.029,0.023,-0.026,-0.006,103.0,102.0,102.0,13.4,1505.2,345.6,-0.8,1.8,2471.409,13.29,0.034,138.5
2023-07-09T06:19:03,42.805,6.029,0.017,-0.011,-0.014,102.0,102.0,102.0,13.4,1505.2,333.4,-0.7,1.8,2471.403,13.29,0.02,122.9
2023-07-09T06:22:03,42.805,6.029,0.01,-0.033,-0.044,102.0,103.0,102.0,13.4,1505.2,342.5,-0.8,1.8,2471.371,13.29,0.034,163.1
2023-07-09T06:25:03,42.805,6.029,0.011,-0.019,-0.032,104.0,102.0,102.0,13.4,1505.2,338.8,-0.7,1.8,2471.384,13.29,0.021,149.9
2023-07-09T06:28:03,42.805,6.029,0.0,-0.012,-0.019,104.0,103.0,102.0,13.4,1505.2,324.2,-0.8,1.8,2471.376,13.29,0.012,180.0
2023-07-09T06:31:03,42.805,6.029,0.029,-0.007,-0.038,104.0,102.0,101.0,13.4,1505.2,329.8,-0.8,1.8,2471.383,13.29,0.029,103.6
2023-07-09T06:34:03,42.805,6.029,0.029,-0.001,-0.008,103.0,102.0,102.0,13.4,1505.2,328.8,-0.8,1.8,2471.372,13.29,0.029,92.0
2023-07-09T06:37:03,42.805,6.029,0.008,-0.009,-0.014,102.0,102.0,101.0,13.4,1505.2,335.7,-0.8,1.8,2471.348,13.29,0.012,138.4
2023-07-09T06:40:03,42.805,6.029,0.002,-0.024,-0.027,103.0,102.0,102.0,13.3,1505.2,348.6,-0.8,1.8,2471.361,13.29,0.024,175.2
2023-07-09T06:43:03,42.805,6.029,0.03,-0.026,-0.043,103.0,103.0,102.0,13.4,1505.2,325.3,-0.8,1.8,2471.345,13.29,0.039,130.9
2023-07-09T06:46:03,42.805,6.029,0.018,-0.026,-0.038,104.0,102.0,101.0,13.4,1505.2,332.5,-0.7,1.8,2471.366,13.29,0.031,145.3
2023-07-09T06:49:03,42.805,6.029,0.031,-0.022,-0.021,104.0,102.0,103.0,13.4,1505.2,333.4,-0.8,1.8,2471.4,13.29,0.038,125.4
2023-07-09T06:52:03,42.805,6.029,0.025,-0.004,-0.029,103.0,103.0,102.0,13.3,1505.2,321.6,-0.8,1.8,2471.367,13.29,0.025,99.1
2023-07-09T06:55:03,42.805,6.029,0.02,-0.022,-0.009,103.0,102.0,102.0,13.4,1505.2,328.1,-0.7,1.8,2471.365,13.29,0.029,137.7
2023-07-09T06:58:03,42.805,6.029,0.003,-0.02,-0.021,103.0,103.0,102.0,13.4,1505.2,353.1,-0.8,1.8,2471.36,13.29,0.02,171.5
2023-07-09T07:04:03,42.805,6.029,0.012,-0.027,-0.026,104.0,103.0,102.0,13.4,1505.2,329.0,-0.8,1.8,2471.421,13.28,0.029,156.0
2023-07-09T07:07:03,42.805,6.029,0.002,-0.029,-0.022,103.0,103.0,101.0,13.4,1505.2,339.3,-0.8,1.8,2471.414,13.28,0.029,176.1
2023-07-09T07:10:03,42.805,6.029,0.032,-0.017,-0.028,104.0,101.0,102.0,13.4,1505.2,336.1,-0.7,1.8,2471.39,13.28,0.036,118.0
2023-07-09T07:13:03,42.805,6.029,0.032,-0.037,-0.022,103.0,102.0,102.0,13.4,1505.2,341.1,-0.8,1.8,2471.389,13.29,0.048,139.1
2023-07-09T07:16:03,42.805,6.029,0.013,0.0,-0.024,103.0,103.0,102.0,13.4,1505.2,342.3,-0.7,1.8,2471.366,13.29,0.013,90.0
2023-07-09T07:19:03,42.805,6.029,0.015,-0.012,-0.015,103.0,102.0,101.0,13.4,1505.2,331.6,-0.8,1.8,2471.402,13.29,0.019,128.7
2023-07-09T07:22:03,42.805,6.029,0.014,-0.025,-0.058,102.0,102.0,102.0,13.3,1505.2,353.4,-0.8,1.8,2471.397,13.29,0.028,150.7
2023-07-09T07:25:03,42.805,6.029,0.019,-0.02,-0.039,102.0,102.0,102.0,13.3,1505.2,324.9,-0.8,1.8,2471.382,13.29,0.027,136.5
2023-07-09T07:28:03,42.805,6.029,-0.005,-0.037,-0.048,102.0,103.0,102.0,13.3,1505.2,332.4,-0.8,1.8,2471.36,13.29,0.037,187.7
2023-07-09T07:31:03,42.805,6.029,0.019,-0.027,-0.043,103.0,101.0,102.0,13.3,1505.2,338.7,-0.8,1.8,2471.373,13.29,0.033,144.9
2023-07-09T07:34:03,42.805,6.029,0.009,-0.042,-0.027,103.0,102.0,102.0,13.4,1505.2,335.8,-0.7,1.8,2471.36,13.29,0.042,167.9
2023-07-09T07:37:03,42.805,6.029,-0.009,-0.013,-0.049,102.0,102.0,102.0,13.4,1505.2,330.9,-0.8,1.8,2471.346,13.29,0.015,214.7
2023-07-09T07:40:03,42.805,6.029,0.021,-0.04,-0.034,103.0,102.0,102.0,13.3,1505.2,333.4,-0.8,1.8,2471.328,13.29,0.045,152.3
2023-07-09T07:43:03,42.805,6.029,0.025,-0.027,-0.042,104.0,102.0,102.0,13.4,1505.2,332.3,-0.8,1.8,2471.354,13.29,0.036,137.2
2023-07-09T07:46:03,42.805,6.029,0.026,-0.024,-0.042,104.0,102.0,102.0,13.3,1505.2,342.2,-0.8,1.8,2471.372,13.29,0.035,132.7
2023-07-09T07:49:03,42.805,6.029,-0.006,-0.002,0.0,103.0,103.0,101.0,13.3,1505.2,349.3,-0.7,1.8,2471.357,13.29,0.006,251.6
2023-07-09T07:52:03,42.805,6.029,0.008,-0.027,-0.042,103.0,103.0,103.0,13.3,1505.2,328.1,-0.8,1.8,2471.356,13.29,0.028,163.5
2023-07-09T07:55:03,42.805,6.029,0.014,-0.054,-0.066,103.0,102.0,102.0,13.4,1505.2,350.7,-0.8,1.8,2471.382,13.29,0.055,165.5
2023-07-09T07:58:03,42.805,6.029,-0.001,-0.006,-0.005,102.0,102.0,102.0,13.3,1505.2,331.8,-0.8,1.8,2471.391,13.29,0.006,189.5
2023-07-09T08:04:03,42.805,6.029,0.014,-0.034,-0.041,103.0,102.0,102.0,13.4,1505.2,333.4,-0.8,1.8,2471.429,13.28,0.036,157.6
2023-07-09T08:07:03,42.805,6.029,-0.005,-0.023,-0.05,103.0,102.0,102.0,13.4,1505.2,329.4,-0.8,1.8,2471.426,13.28,0.023,192.3
2023-07-09T08:10:03,42.805,6.029,0.021,-0.025,-0.04,103.0,104.0,102.0,13.4,1505.2,336.6,-0.8,1.9,2471.399,13.28,0.032,140.0
2023-07-09T08:13:03,42.805,6.029,0.003,-0.023,-0.021,103.0,102.0,103.0,13.4,1505.2,349.5,-0.8,1.8,2471.414,13.29,0.023,172.6
2023-07-09T08:16:03,42.805,6.029,0.018,-0.038,-0.045,103.0,102.0,102.0,13.3,1505.2,343.4,-0.8,1.8,2471.397,13.29,0.042,154.7
2023-07-09T08:19:03,42.805,6.029,0.008,0.0,-0.032,103.0,103.0,102.0,13.4,1505.2,335.5,-0.8,1.8,2471.43,13.29,0.008,90.0
2023-07-09T08:22:03,42.805,6.029,0.025,-0.033,-0.023,104.0,101.0,102.0,13.4,1505.2,323.1,-0.7,1.8,2471.375,13.29,0.041,142.8
2023-07-09T08:25:03,42.805,6.029,0.004,-0.023,-0.046,102.0,104.0,102.0,13.4,1505.2,332.9,-0.8,1.8,2471.377,13.29,0.023,170.1
2023-07-09T08:28:03,42.805,6.029,0.009,-0.05,-0.05,103.0,103.0,102.0,13.4,1505.2,349.1,-0.7,1.8,2471.37,13.29,0.05,169.8
2023-07-09T08:31:03,42.805,6.029,0.013,-0.025,-0.033,103.0,102.0,102.0,13.4,1505.2,349.3,-0.8,1.9,2471.421,13.29,0.028,152.5
2023-07-09T08:34:03,42.805,6.029,0.02,-0.006,-0.046,103.0,102.0,103.0,13.3,1505.2,337.3,-0.8,1.8,2471.391,13.29,0.02,106.7
2023-07-09T08:37:03,42.805,6.029,0.005,-0.021,-0.022,103.0,102.0,102.0,13.3,1505.2,329.3,-0.8,1.8,2471.361,13.29,0.021,166.6
2023-07-09T08:40:03,42.805,6.029,-0.008,-0.025,-0.027,103.0,102.0,102.0,13.4,1505.2,352.0,-0.7,1.8,2471.398,13.29,0.026,197.7
2023-07-09T08:43:03,42.805,6.029,0.019,-0.011,-0.023,104.0,103.0,102.0,13.3,1505.2,324.2,-0.8,1.8,2471.404,13.29,0.021,120.1
2023-07-09T08:46:03,42.805,6.029,0.017,-0.023,-0.016,103.0,101.0,102.0,13.4,1505.2,342.3,-0.8,1.8,2471.374,13.29,0.028,143.5
2023-07-09T08:49:03,42.805,6.029,-0.02,-0.018,-0.039,104.0,101.0,101.0,13.3,1505.2,352.0,-0.8,1.8,2471.373,13.29,0.026,228.0
2023-07-09T08:52:03,42.805,6.029,0.002,-0.021,-0.034,102.0,102.0,102.0,13.3,1505.2,339.3,-0.8,1.8,2471.447,13.29,0.021,174.6
2023-07-09T08:55:03,42.805,6.029,0.025,-0.051,-0.021,103.0,102.0,102.0,13.4,1505.2,338.5,-0.7,1.8,2471.399,13.29,0.056,153.9
2023-07-09T08:58:03,42.805,6.029,0.02,-0.014,-0.028,102.0,103.0,103.0,13.3,1505.2,348.9,-0.7,1.8,2471.407,13.29,0.024,125.0
2023-07-09T09:04:03,42.805,6.029,0.007,-0.016,-0.06,102.0,102.0,102.0,13.4,1505.2,340.4,-0.8,1.8,2471.441,13.28,0.017,156.4
2023-07-09T09:07:03,42.805,6.029,0.001,-0.018,-0.029,104.0,102.0,101.0,13.4,1505.2,349.5,-0.8,1.8,2471.438,13.28,0.018,176.8
2023-07-09T09:10:03,42.805,6.029,0.023,-0.016,-0.02,103.0,102.0,102.0,13.4,1505.2,323.3,-0.8,1.8,2471.417,13.29,0.028,124.8
2023-07-09T09:13:03,42.805,6.029,0.032,-0.008,-0.008,104.0,102.0,101.0,13.4,1505.2,331.5,-0.8,1.8,2471.442,13.29,0.032,104.0
2023-07-09T09:16:03,42.805,6.029,0.018,-0.028,-0.04,102.0,101.0,102.0,13.4,1505.2,332.1,-0.8,1.8,2471.412,13.29,0.033,147.3
2023-07-09T09:19:03,42.805,6.029,-0.013,-0.006,-0.019,101.0,103.0,102.0,13.4,1505.2,341.2,-0.8,1.8,2471.42,13.29,0.014,245.2
2023-07-09T09:22:03,42.805,6.029,-0.013,-0.003,-0.019,102.0,103.0,102.0,13.4,1505.2,340.8,-0.8,1.8,2471.455,13.29,0.013,257.0
2023-07-09T09:25:03,42.805,6.029,0.015,-0.02,-0.009,104.0,101.0,102.0,13.4,1505.2,343.6,-0.8,1.8,2471.402,13.29,0.025,143.1
2023-07-09T09:28:03,42.805,6.029,-0.019,-0.021,-0.045,102.0,103.0,101.0,13.4,1505.2,331.3,-0.8,1.8,2471.451,13.29,0.028,222.1
2023-07-09T09:31:03,42.805,6.029,0.005,-0.012,-0.047,102.0,102.0,103.0,13.4,1505.2,332.4,-0.8,1.9,2471.457,13.29,0.013,157.4
2023-07-09T09:34:03,42.805,6.029,0.032,-0.018,-0.049,103.0,101.0,102.0,13.4,1505.2,327.1,-0.8,1.9,2471.419,13.29,0.036,119.4
2023-07-09T09:37:03,42.805,6.029,0.014,-0.006,-0.022,102.0,102.0,102.0,13.3,1505.2,328.5,-0.7,1.8,2471.43,13.29,0.015,113.2
2023-07-09T09:40:03,42.805,6.029,0.018,-0.005,-0.027,103.0,102.0,103.0,13.3,1505.2,344.6,-0.7,1.8,2471.439,13.29,0.018,105.5
2023-07-09T09:43:03,42.805,6.029,0.027,-0.016,-0.032,103.0,102.0,101.0,13.4,1505.2,339.3,-0.8,1.8,2471.462,13.29,0.031,120.7
2023-07-09T09:46:03,42.805,6.029,0.016,-0.037,-0.039,103.0,102.0,102.0,13.4,1505.2,324.3,-0.7,1.9,2471.406,13.29,0.04,156.6
2023-07-09T09:49:03,42.805,6.029,-0.003,-0.03,-0.041,102.0,102.0,102.0,13.4,1505.2,344.4,-0.8,1.8,2471.408,13.29,0.03,185.7
2023-07-09T09:52:03,42.805,6.029,-0.011,-0.003,-0.016,102.0,102.0,102.0,13.3,1505.2,329.5,-0.8,1.8,2471.423,13.29,0.011,254.7
2023-07-09T09:55:03,42.805,6.029,0.017,-0.036,-0.034,103.0,101.0,102.0,13.3,1505.2,335.4,-0.8,1.8,2471.417,13.29,0.039,154.7